This is the latest recevied weather packets stored in our database for station/object KC0QBU-13. If no packets are shown the sender has not sent any weather packets the latest 10 day(s).
| Time | Temp. | Humidity | Pressure | Rain* | Wind** | Luminosity | Snow |
|---|---|---|---|---|---|---|---|
| 1777383603 | 10° C | 78% | 1019.4 hPa | 0 mm | - | - | - |
| 1777382404 | 9.44° C | 76% | 1019.4 hPa | 0 mm | - | - | - |
| 1777380904 | 9.44° C | 77% | 1019.1 hPa | 0 mm | - | - | - |
| 1777379403 | 9.44° C | 77% | 1019 hPa | 0 mm | - | - | - |
| 1777377304 | 8.89° C | 77% | 1018 hPa | 0 mm | - | - | - |
| 1777374004 | 8.89° C | 76% | 1016.6 hPa | 0 mm | - | - | - |
| 1777372504 | 8.89° C | 76% | 1016.1 hPa | 0 mm | - | - | - |
| 1777369504 | 8.89° C | 78% | 1015.8 hPa | 0 mm | - | - | - |
| 1777365004 | 8.89° C | 76% | 1016 hPa | 0 mm | - | - | - |
| 1777363504 | 9.44° C | 74% | 1016.2 hPa | 0 mm | - | - | - |
| 1777362603 | 9.44° C | 72% | 1016.3 hPa | 0 mm | - | - | - |
| 1777360804 | 10.56° C | 73% | 1016.2 hPa | 0 mm | - | - | - |
| 1777356904 | 11.67° C | 71% | 1016.1 hPa | 0 mm | - | - | - |
| 1777355704 | 12.22° C | 71% | 1015.7 hPa | 0 mm | - | - | - |
| 1777355403 | 12.22° C | 71% | 1015.7 hPa | 0 mm | - | - | - |
| 1777352703 | 12.78° C | 71% | 1015.2 hPa | 0 mm | - | - | - |
| 1777352404 | 12.78° C | 71% | 1015.2 hPa | 0 mm | - | - | - |
| 1777350903 | 12.78° C | 71% | 1015.2 hPa | 0 mm | - | - | - |
| 1777350604 | 12.78° C | 70% | 1015.2 hPa | 0 mm | - | - | - |
| 1777348503 | 13.33° C | 71% | 1015 hPa | 0 mm | - | - | - |
| 1777348204 | 13.33° C | 70% | 1014.8 hPa | 0 mm | - | - | - |
| 1777347303 | 13.89° C | 69% | 1014.6 hPa | 0 mm | - | - | - |
| 1777346703 | 14.44° C | 68% | 1014.5 hPa | 0 mm | - | - | - |
| 1777345504 | 14.44° C | 69% | 1014.1 hPa | 0 mm | - | - | - |
| 1777342804 | 15° C | 69% | 1013.1 hPa | 0 mm | - | - | - |
* Rain latest hour (hover to see other rain measurements)
** Current wind speed in m/s (hover to see current wind gust speed)